When you browse on this site, cookies collect data to enhance your experience and personalize the content and advertising you see.
Visit our Privacy Policy to learn more. By continuing to use the site, you agree to this use of cookies and data.
  • In Austria
  • List of Countries
  • For 7 days
  • Water Temperature
  • Satellite Maps
  • Weather Map
  • News
  • Weather Widgets
  • user-avatar
    Login

    Hourly Weather Coram

    Today, 19 June, Wednesday

    Time Temperature Precipitation Wind Pressure Humidity
    00:00 +19°C° 0 mm 2 mps 755 mmHg 93%
    01:00 +19°C° 0 mm 2 mps 755 mmHg 91%
    02:00 +19°C° 0 mm 2 mps 755 mmHg 91%
    03:00 +19°C° 0 mm 2 mps 755 mmHg 90%
    04:00 +19°C° 0 mm 2 mps 755 mmHg 90%
    05:00 +19°C° 0 mm 2 mps 755 mmHg 89%
    06:00 +19°C° 0 mm 2 mps 755 mmHg 87%
    07:00 +20°C° 0 mm 2 mps 756 mmHg 86%
    08:00 +21°C° 0 mm 2 mps 755 mmHg 83%
    09:00 +21°C° 0 mm 2 mps 755 mmHg 81%
    10:00 +23°C° 0 mm 2 mps 755 mmHg 78%
    11:00 +22°C° 0 mm 3 mps 755 mmHg 77%
    12:00 +22°C° 0 mm 3 mps 754 mmHg 77%
    13:00 +22°C° 0 mm 3 mps 754 mmHg 76%
    14:00 +22°C° 0 mm 4 mps 753 mmHg 77%
    15:00 +22°C° 0 mm 4 mps 753 mmHg 79%
    16:00 +23°C° 0 mm 4 mps 752 mmHg 80%
    17:00 +22°C° 0 mm 4 mps 752 mmHg 83%
    18:00 +21°C° 0 mm 4 mps 752 mmHg 87%
    19:00 +21°C° 0 mm 4 mps 752 mmHg 90%
    20:00 +21°C° 0.3 mm 3 mps 752 mmHg 91%
    21:00 +21°C° 0.3 mm 3 mps 752 mmHg 92%
    22:00 +21°C° 0.3 mm 3 mps 752 mmHg 92%
    23:00 +21°C° 0.1 mm 3 mps 751 mmHg 92%

    Tomorrow, 20 June, Thursday

    Time Temperature Precipitation Wind Pressure Humidity
    00:00 +21°C° 0.1 mm 3 mps 751 mmHg 92%
    01:00 +21°C° 0.1 mm 2 mps 751 mmHg 91%
    02:00 +21°C° 0 mm 2 mps 750 mmHg 92%
    03:00 +20°C° 0 mm 2 mps 750 mmHg 94%
    04:00 +20°C° 0 mm 2 mps 749 mmHg 95%
    05:00 +21°C° 0 mm 2 mps 749 mmHg 93%
    06:00 +21°C° 0 mm 2 mps 749 mmHg 92%
    07:00 +23°C° 0 mm 2 mps 749 mmHg 90%
    08:00 +24°C° 0 mm 2 mps 749 mmHg 87%
    09:00 +25°C° 0 mm 3 mps 749 mmHg 83%
    10:00 +25°C° 0 mm 3 mps 749 mmHg 80%
    11:00 +26°C° 0 mm 4 mps 748 mmHg 78%
    12:00 +26°C° 0 mm 5 mps 748 mmHg 77%
    13:00 +26°C° 0 mm 5 mps 747 mmHg 76%
    14:00 +26°C° 0.2 mm 5 mps 747 mmHg 76%
    15:00 +26°C° 0.2 mm 5 mps 746 mmHg 77%
    16:00 +26°C° 0.2 mm 5 mps 746 mmHg 78%
    17:00 +26°C° 0.1 mm 5 mps 745 mmHg 79%
    18:00 +25°C° 0.1 mm 5 mps 745 mmHg 80%
    19:00 +25°C° 0.1 mm 5 mps 745 mmHg 81%
    20:00 +25°C° 0.9 mm 5 mps 745 mmHg 82%
    21:00 +23°C° 0.9 mm 5 mps 745 mmHg 83%
    22:00 +23°C° 0.9 mm 5 mps 745 mmHg 84%
    23:00 +23°C° 0.5 mm 5 mps 745 mmHg 84%

    Day after tomorrow, 21 June, Friday

    Time Temperature Precipitation Wind Pressure Humidity
    00:00 +23°C° 0.5 mm 5 mps 744 mmHg 84%
    01:00 +23°C° 0.5 mm 5 mps 744 mmHg 85%
    02:00 +22°C° 0.2 mm 5 mps 744 mmHg 85%
    03:00 +22°C° 0.2 mm 5 mps 744 mmHg 85%
    04:00 +21°C° 0.2 mm 5 mps 744 mmHg 85%
    05:00 +21°C° 0 mm 5 mps 744 mmHg 84%
    06:00 +21°C° 0 mm 5 mps 745 mmHg 82%
    07:00 +20°C° 0 mm 5 mps 745 mmHg 80%
    08:00 +20°C° 0 mm 6 mps 746 mmHg 78%
    09:00 +20°C° 0 mm 7 mps 747 mmHg 75%
    10:00 +20°C° 0 mm 8 mps 747 mmHg 73%
    11:00 +20°C° 0 mm 8 mps 748 mmHg 69%
    12:00 +20°C° 0 mm 8 mps 749 mmHg 64%
    13:00 +20°C° 0 mm 8 mps 749 mmHg 60%
    14:00 +21°C° 0 mm 7 mps 750 mmHg 55%
    15:00 +23°C° 0 mm 7 mps 750 mmHg 50%
    16:00 +24°C° 0 mm 6 mps 751 mmHg 45%
    17:00 +23°C° 0 mm 6 mps 752 mmHg 46%
    18:00 +23°C° 0 mm 6 mps 752 mmHg 47%
    19:00 +22°C° 0 mm 7 mps 753 mmHg 48%
    20:00 +21°C° 0 mm 7 mps 753 mmHg 51%
    21:00 +21°C° 0 mm 7 mps 754 mmHg 54%
    22:00 +20°C° 0 mm 7 mps 754 mmHg 57%
    23:00 +20°C° 0 mm 6 mps 754 mmHg 58%

    22 June, Saturday

    Time Temperature Precipitation Wind Pressure Humidity
    00:00 +19°C° 0 mm 6 mps 755 mmHg 59%
    01:00 +19°C° 0 mm 6 mps 755 mmHg 60%
    02:00 +19°C° 0 mm 6 mps 755 mmHg 61%
    03:00 +19°C° 0 mm 6 mps 755 mmHg 62%
    04:00 +17°C° 0 mm 6 mps 755 mmHg 62%
    05:00 +19°C° 0 mm 6 mps 755 mmHg 61%
    06:00 +19°C° 0 mm 6 mps 756 mmHg 59%
    07:00 +20°C° 0 mm 6 mps 756 mmHg 57%
    08:00 +21°C° 0 mm 6 mps 756 mmHg 53%
    09:00 +22°C° 0 mm 6 mps 756 mmHg 48%
    10:00 +23°C° 0 mm 6 mps 756 mmHg 44%
    11:00 +24°C° 0 mm 6 mps 756 mmHg 42%
    12:00 +26°C° 0 mm 6 mps 756 mmHg 41%
    13:00 +26°C° 0 mm 6 mps 756 mmHg 39%
    14:00 +26°C° 0 mm 6 mps 756 mmHg 39%
    15:00 +26°C° 0 mm 6 mps 756 mmHg 40%
    16:00 +26°C° 0 mm 6 mps 756 mmHg 41%
    17:00 +26°C° 0 mm 6 mps 756 mmHg 43%
    18:00 +24°C° 0 mm 6 mps 757 mmHg 45%
    19:00 +25°C° 0 mm 5 mps 757 mmHg 47%
    20:00 +23°C° 0 mm 5 mps 757 mmHg 50%
    21:00 +23°C° 0 mm 5 mps 758 mmHg 53%
    22:00 +22°C° 0 mm 5 mps 758 mmHg 57%
    23:00 +21°C° 0 mm 4 mps 758 mmHg 59%

    23 June, Sunday

    Time Temperature Precipitation Wind Pressure Humidity
    00:00 +21°C° 0 mm 4 mps 758 mmHg 60%
    01:00 +20°C° 0 mm 3 mps 758 mmHg 62%
    02:00 +20°C° 0 mm 3 mps 758 mmHg 63%
    03:00 +20°C° 0 mm 3 mps 758 mmHg 63%
    04:00 +19°C° 0 mm 3 mps 758 mmHg 64%
    05:00 +20°C° 0 mm 3 mps 758 mmHg 62%
    06:00 +20°C° 0 mm 3 mps 759 mmHg 60%
    07:00 +21°C° 0 mm 3 mps 759 mmHg 58%
    08:00 +22°C° 0 mm 3 mps 758 mmHg 53%
    09:00 +24°C° 0 mm 3 mps 758 mmHg 49%
    10:00 +26°C° 0 mm 3 mps 758 mmHg 44%
    11:00 +26°C° 0 mm 3 mps 758 mmHg 42%
    12:00 +27°C° 0 mm 4 mps 757 mmHg 39%
    13:00 +28°C° 0 mm 4 mps 757 mmHg 37%
    14:00 +28°C° 0 mm 4 mps 757 mmHg 39%
    15:00 +28°C° 0 mm 4 mps 756 mmHg 41%
    16:00 +28°C° 0 mm 4 mps 756 mmHg 44%
    17:00 +27°C° 0 mm 4 mps 756 mmHg 50%
    18:00 +25°C° 0 mm 4 mps 756 mmHg 56%
    19:00 +23°C° 0 mm 5 mps 756 mmHg 63%
    20:00 +23°C° 0 mm 5 mps 756 mmHg 65%
    21:00 +23°C° 0 mm 5 mps 756 mmHg 68%
    22:00 +23°C° 0 mm 5 mps 756 mmHg 71%
    23:00 +23°C° 0 mm 5 mps 756 mmHg 74%

    24 June, Monday

    Time Temperature Precipitation Wind Pressure Humidity
    00:00 +23°C° 0 mm 5 mps 755 mmHg 77%
    01:00 +22°C° 0 mm 5 mps 755 mmHg 79%
    02:00 +22°C° 0 mm 4 mps 755 mmHg 80%
    03:00 +22°C° 0 mm 4 mps 754 mmHg 82%
    04:00 +22°C° 0 mm 3 mps 754 mmHg 83%
    05:00 +22°C° 0 mm 3 mps 754 mmHg 81%
    06:00 +24°C° 0 mm 3 mps 754 mmHg 80%
    07:00 +24°C° 0 mm 3 mps 754 mmHg 79%
    08:00 +26°C° 0 mm 3 mps 754 mmHg 74%
    09:00 +27°C° 0 mm 3 mps 754 mmHg 68%
    10:00 +28°C° 0 mm 4 mps 754 mmHg 63%
    11:00 +29°C° 0 mm 4 mps 754 mmHg 62%
    12:00 +29°C° 0 mm 4 mps 754 mmHg 61%
    13:00 +29°C° 0 mm 5 mps 753 mmHg 61%
    14:00 +29°C° 0 mm 5 mps 753 mmHg 63%
    15:00 +29°C° 0 mm 6 mps 753 mmHg 66%
    16:00 +28°C° 0 mm 6 mps 753 mmHg 69%
    17:00 +28°C° 0 mm 6 mps 753 mmHg 70%
    18:00 +27°C° 0 mm 5 mps 753 mmHg 72%
    19:00 +26°C° 0 mm 5 mps 753 mmHg 73%
    20:00 +26°C° 0 mm 5 mps 753 mmHg 72%
    21:00 +26°C° 0 mm 5 mps 753 mmHg 71%
    22:00 +26°C° 0 mm 5 mps 753 mmHg 70%
    23:00 +26°C° 0.1 mm 5 mps 753 mmHg 71%
    Show more